STARLINK-2407, 47822

Orbit data source: Space-Track

STARLINK-2407, 47822 is a payload satellite owned by SpaceX/Seattle (US) in LEO that was launched on Thu, 11 Mar 2021 UTC via an FALCON 9 launch vehicle from the Air Force Eastern Test Range (AFETR). Payload-class satellites include a variety of spacecraft equipped with specific instruments for various scientific and technological missions. These include communications satellites like Starlink; space stations such as the ISS; scientific satellites like the Hubble; Earth observation satellites from companies like Planet Labs, Umbra, and HawkEye 360; GPS; miniature CubeSats for education and research; and military/defense satellites.

Loading next visibility...
Identifier
47822, 2021-018AM
Orbit
LEO
Country
Flag of USUS
Related business
Manufacturer
SpaceX/Seattle
Mission
Operational Commercial Communications
Bus & Motor
STARLINK, Unknown motor
Mass
260 kg wet, ~248 kg dry
Launch date (UTC)
2021-03-11 (5 years ago)
Launch vehicle
FALCON 9
Launch site
Air Force Eastern Test Range (AFETR)
Object type
Payload
Rocket body
Debris
Shape & HBR
Box + 1 Pan, 10.1 m
Radar Cross Section
13.562 m², Large (>1 m²)

Expand to show TLE details & history
Last TLE update: 20 hours ago

TLE from 20 hours ago
0 STARLINK-2407
1 47822U 21018AM  25292.06672378  .00003012  00000-0  22104-3 0  9992
2 47822  53.0530 177.3795 0001550  84.6713 275.4453 15.06395510255119
Epoch: 2025-10-19T01:36Z
TLE epoch observation values (Epoch: 2025-10-19T01:36:04.934Z)
Latitude
-0.00001°
Longitude
125.57022°
Altitude
548.003 km
Speed
7.589 km/s
True Right ascension
11h 49m 31s
True Declination
0° 00' 00"
Sunlit
Object was in daylight at epoch
Visualization orbit readout
Latitude
Unknown
Longitude
Unknown
Altitude
Unknown
Speed
Unknown
Apparent Right ascension
Unknown
Apparent Declination
Unknown
Sunlit
N/A
Visualization observer readout
Local Sidereal Time
16:05:47
Azimuth
Unknown
Elevation
Unknown
Doppler factor
Unknown
Orbital elements
Apogee altitude
548.57 km
Perigee altitude
546.423 km
Semi-major axis
6,925.633 km
Eccentricity
0.00016
Inclination
53.053°
RAAN
177.3795°
Arg. of periapsis
84.6713°
True anomaly
275.42762°
Mean anomaly
275.4453°
Eccentric anomaly
275.43646°
Mean motion
3.76577 °/min
Orbital period
95.6 mins
BSTAR
0.00022104
Loading maneuver chart data...
Computing Atmospheric mass density...

Documentation

Showing up to 5 results
|